Regional Weather Roundup
Issued by NWS Memphis, TN

Home | Current Version | Previous Version | Text Only | Print | Product List | Glossary On
Versions: 1 2 3 4 5 6 7 8 9 10 11 12 13 14 15 16 17 18 19 20 21 22 23 24 25 26 27 28 29 30 31 32 33 34 35 36 37 38 39 40 41 42 43 44 45 46 47 48 49 50
000
ASUS44 KMEG 240610
RWRMEG
MEMPHIS CWA HOURLY WEATHER ROUNDUP
NATIONAL WEATHER SERVICE MEMPHIS TN
100 AM CDT THU APR 24 2014

...WEST TENNESSEE...

CITY           SKY/WX    TMP DP  RH WIND       PRES   REMARKS
MEMPHIS INTL   FAIR      61  39  44 E3        29.94R
6HR MIN TEMP:  60; 6HR MAX TEMP:  74;

NWS MEMPHIS      N/A     53 N/A N/A MISG        N/A
JACKSON        FAIR      55  37  50 CALM      29.96S
6HR MIN TEMP:  54; 6HR MAX TEMP:  72;

LEXINGTON      CLEAR     48  37  66 CALM      29.96S
SILERTON         N/A     54  36  50 NE2         N/A
SAVANNAH       FAIR      45  44  96 CALM      29.97R
DYERSBURG      FAIR      57  34  41 E7        29.96F
6HR MIN TEMP:  57; 6HR MAX TEMP:  70;

UNION CITY     CLEAR     52  36  54 E3        29.96S
PARIS          FAIR      49  35  58 NE5       29.97F


...EASTERN ARKANSAS...

CITY           SKY/WX    TMP DP  RH WIND       PRES   REMARKS
JONESBORO      FAIR      53  43  68 E5        29.93F
6HR MIN TEMP:  53; 6HR MAX TEMP:  71;

WEST MEMPHIS   FAIR      57  41  55 E5        29.93S HAZE
6HR MIN TEMP:  57; 6HR MAX TEMP:  75;

BATESVILLE     FAIR      61  43  51 E6        29.90F
6HR MIN TEMP:  59; 6HR MAX TEMP:  72;

NEWPORT        FAIR      58  46  64 SE10      29.93F
6HR MIN TEMP:  58; 6HR MAX TEMP:  71;

WALNUT RIDGE   FAIR      55  39  54 E8        29.92F
6HR MIN TEMP:  55; 6HR MAX TEMP:  72;

BLYTHEVILLE    FAIR      56  41  57 E9        29.95S
6HR MIN TEMP:  53; 6HR MAX TEMP:  67;

SEARCY         FAIR      57  48  72 CALM      29.91F
6HR MIN TEMP:  53; 6HR MAX TEMP:  74;

STUTTGART      FAIR      63  45  51 SE7       29.91F
6HR MIN TEMP:  61; 6HR MAX TEMP:  75;

PINE BLUFF     FAIR      56  49  77 E5        29.90F
6HR MIN TEMP:  56; 6HR MAX TEMP:  73;

MONTICELLO     FAIR      57  49  74 SE3       29.89F
6HR MIN TEMP:  56; 6HR MAX TEMP:  76;



...NORTH MISSISSIPPI...

CITY           SKY/WX    TMP DP  RH WIND       PRES   REMARKS
TUPELO         FAIR      53  46  77 CALM      29.95R
6HR MIN TEMP:  53; 6HR MAX TEMP:  74;

OXFORD         FAIR      50  45  81 CALM      29.95S
OLIVE BRANCH   CLEAR     55  41  58 CALM      29.94S
TUNICA         FAIR      52  45  76 NE3       29.94S
CLARKSDALE       N/A     57  46  67 CALM      29.93F
CORINTH        FAIR      48  45  87 CALM      29.96S
GRENADA        FAIR      48  46  93 CALM      29.94R
GREENWOOD      FAIR      55  47  74 N3        29.92S
6HR MIN TEMP:  53; 6HR MAX TEMP:  73;

COLUMBUS       FAIR      51  50  97 CALM      29.94S
6HR MIN TEMP:  49; 6HR MAX TEMP:  74;

STARKVILLE     FAIR      50  46  87 CALM      29.94S
GOLDEN TRIANGL FAIR      54  46  76 CALM      29.97S
6HR MIN TEMP:  54; 6HR MAX TEMP:  75;



...SOUTHEAST MISSOURI...

CITY           SKY/WX    TMP DP  RH WIND       PRES   REMARKS
WEST PLAINS    FAIR      58  36  43 SE6       29.92S
6HR MIN TEMP:  57; 6HR MAX TEMP:  71;

POPLAR BLUFF   FAIR      52  43  71 E3        29.94S
6HR MIN TEMP:  52; 6HR MAX TEMP:  68;

CAPE GIRARDEAU FAIR      51  38  60 E5        29.97S
6HR MIN TEMP:  51; 6HR MAX TEMP:  66;



...NORTHWEST ALABAMA...

CITY           SKY/WX    TMP DP  RH WIND       PRES   REMARKS
MUSCLE SHOALS  FAIR      48  41  76 CALM      29.98S
6HR MIN TEMP:  48; 6HR MAX TEMP:  71;



...MIDDLE TENNESSEE...

CITY           SKY/WX    TMP DP  RH WIND       PRES   REMARKS
NASHVILLE      FAIR      50  36  58 CALM      30.00S
6HR MIN TEMP:  50; 6HR MAX TEMP:  65;

CLARKSVILLE    FAIR      51  35  54 E5        30.00R
6HR MIN TEMP:  50; 6HR MAX TEMP:  65;

DICKSON        FAIR      52  32  46 CALM      29.98S
COLUMBIA       CLEAR     46  46 100 CALM      29.97F
LEWISBURG      FAIR      41  38  89 CALM      29.98F


...WESTERN KENTUCKY...

CITY           SKY/WX    TMP DP  RH WIND       PRES   REMARKS
PADUCAH        FAIR      50  39  66 E6        29.97S
6HR MIN TEMP:  50; 6HR MAX TEMP:  66;

FORT CAMPBELL  FAIR      52  35  51 E6        29.99S
6HR MIN TEMP:  52; 6HR MAX TEMP:  63;



...CENTRAL ARKANSAS...

CITY           SKY/WX    TMP DP  RH WIND       PRES   REMARKS
LITTLE ROCK    MOCLDY    60  46  59 CALM      29.89F
6HR MIN TEMP:  58; 6HR MAX TEMP:  75;



SKY/WX REPORTED AS FAIR MEANS FEW OR NO CLOUDS BELOW
12 THOUSAND FEET.




USA.gov is the U.S. government's official web portal to all federal, state and local government web resources and services.